Weather History for Winnipeg, MB

Change the Weather History Date:

Sunday, January 19, 2014

  Actual Average Record
Temperature  
Mean Temperature 10 °F -  
Max Temperature 23 °F 7 °F 28 °F (1997)
Min Temperature -4 °F -6 °F -23 °F (2008)
Degree Days  
Heating Degree Days 54    
Moisture  
Dew Point 4 °F    
Average Humidity 83    
Maximum Humidity 93    
Minimum Humidity 78    
Precipitation  
Precipitation 0.00 in - - ()
Sea Level Pressure  
Sea Level Pressure 29.71 in    
Wind  
Wind Speed 13 mph ()    
Max Wind Speed 17 mph    
Max Gust Speed 20 mph    
Visibility 10.1 miles    
Events Snow    
Averages and records for this station are not official NWS values.
T = Trace of Precipitation, MM = Missing Value Source: Averaged Metar Reports

Daily Weather History Graph

Daily Weather History Graph

Search for Another Location

Airport:

Trip Planner

Search our weather history database for the weather conditions in past years. The results will help you decide how hot, cold, wet, or windy it might be!

Date:

Astronomy

Jan. 19, 2014 Rise Set
Actual Time 8:17 AM CST 5:02 PM CST
Civil Twilight 7:41 AM CST 5:38 PM CST
Nautical Twilight 7:01 AM CST 6:18 PM CST
Astronomical Twilight 6:23 AM CST 6:56 PM CST
Moon 9:07 PM CST (1/19) 9:24 AM CST (1/19)
Length of Visible Light 9h 57m
Length of Day
8h 44m
Waning Gibbous, 89% of the Moon is Illuminated
Jan 19
Waning Gibbous
Jan 23
Last Quarter
Jan 30
New
Feb 6
First Quarter
Feb 14
Full

Hourly Weather History & Observations

Time (CST) Temp. Windchill Dew Point Humidity Pressure Visibility Wind Dir Wind Speed Gust Speed Precip Events Conditions
12:00 AM 23.0 °F 10.6 °F 19.4 °F 86% 29.49 in 15.0 mi WNW 13.8 mph - N/A   Clear
1:00 AM 19.4 °F 6.6 °F 17.6 °F 93% 29.49 in 15.0 mi NW 12.7 mph - N/A   Clear
2:00 AM 15.8 °F 2.7 °F 14.0 °F 93% 29.52 in 15.0 mi NNW 11.5 mph - N/A   Clear
2:35 AM 23.0 °F 10.1 °F 19.4 °F 86% 29.54 in 15.0 mi NNE 15.0 mph - N/A   Mostly Cloudy
3:00 AM 23.0 °F 11.1 °F 19.4 °F 86% 29.56 in 15.0 mi NNE 12.7 mph 18.4 mph N/A   Overcast
3:34 AM 21.2 °F 8.3 °F 19.4 °F 93% 29.57 in 15.0 mi NNE 13.8 mph - N/A   Overcast
4:00 AM 21.2 °F 8.9 °F 17.6 °F 86% 29.57 in 15.0 mi NNE 12.7 mph - N/A   Overcast
5:00 AM 19.4 °F 5.5 °F 15.8 °F 86% 29.58 in 15.0 mi NNE 15.0 mph - N/A   Overcast
6:00 AM 15.8 °F 1.4 °F 12.2 °F 86% 29.61 in 15.0 mi NNE 13.8 mph - N/A   Overcast
7:00 AM 14.0 °F -2.0 °F 8.6 °F 79% 29.60 in 15.0 mi NNE 16.1 mph - N/A   Overcast
8:00 AM 12.2 °F -1.0 °F 6.8 °F 79% 29.62 in 15.0 mi NNE 10.4 mph - N/A   Mostly Cloudy
9:00 AM 10.4 °F -6.0 °F 5.0 °F 79% 29.64 in 15.0 mi NNE 15.0 mph - N/A   Overcast
10:00 AM 8.6 °F -9.5 °F 5.0 °F 85% 29.67 in 15.0 mi NNE 17.3 mph - N/A Snow Low Drifting Snow
11:00 AM 6.8 °F -11.8 °F 3.2 °F 85% 29.67 in 15.0 mi NE 17.3 mph - N/A Snow Low Drifting Snow
11:48 AM 5.0 °F -13.0 °F 1.4 °F 85% 29.68 in 15.0 mi NNE 15.0 mph - N/A Snow Light Freezing Drizzle
12:00 PM 5.0 °F -13.0 °F 1.4 °F 85% 29.70 in 15.0 mi NNE 15.0 mph - N/A Snow Light Freezing Drizzle
12:32 PM 5.0 °F -13.6 °F -0.4 °F 78% 29.70 in 15.0 mi NNE 16.1 mph - N/A Snow Light Freezing Drizzle
1:00 PM 3.2 °F -13.9 °F - N/A% 29.70 in 5.0 mi NNE 12.7 mph - N/A Snow Light Freezing Drizzle
1:39 PM 3.2 °F -14.6 °F -0.4 °F 85% 29.70 in 6.0 mi NNE 13.8 mph - N/A Snow Light Snow
2:00 PM 3.2 °F -16.5 °F -0.4 °F 85% 29.71 in 6.0 mi NNE 17.3 mph - N/A Snow Light Snow
3:00 PM 3.2 °F -13.9 °F -0.4 °F 85% 29.74 in 4.0 mi NNE 12.7 mph 19.6 mph N/A Snow Light Snow
4:00 PM 3.2 °F -15.3 °F -2.2 °F 78% 29.76 in 4.0 mi NE 15.0 mph - N/A Snow Light Snow
5:00 PM 1.4 °F -16.9 °F -2.2 °F 85% 29.79 in 4.0 mi NE 13.8 mph - N/A Snow Light Snow
6:00 PM 1.4 °F -17.6 °F -4.0 °F 78% 29.82 in 4.0 mi NNE 15.0 mph - N/A Snow Light Snow
7:00 PM -0.4 °F -20.5 °F -5.8 °F 78% 29.85 in 4.0 mi NNE 16.1 mph - N/A Snow Light Snow
8:00 PM -0.4 °F -20.5 °F -5.8 °F 78% 29.87 in 6.0 mi NNE 16.1 mph - N/A Snow Light Snow
9:00 PM -2.2 °F -23.5 °F -7.6 °F 78% 29.92 in 3.0 mi NNE 17.3 mph - N/A Snow Light Snow
10:00 PM -2.2 °F -22.9 °F -7.6 °F 78% 29.96 in 4.0 mi NNE 16.1 mph - N/A Snow Light Snow
10:40 PM -2.2 °F -22.9 °F -7.6 °F 78% 29.99 in 1.5 mi North 16.1 mph - N/A Snow Light Snow
11:00 PM -2.2 °F -23.5 °F -7.6 °F 78% 30.00 in 2.0 mi NNE 17.3 mph - N/A Snow Light Snow
11:43 PM -4.0 °F -25.8 °F -9.4 °F 78% 30.02 in 4.0 mi NNE 17.3 mph - N/A Snow Light Snow